Location: Newark
(52.4787°S, 179.0532°W)
Time: 05:44:51
(UTC+00:00)

Vanguard 1 - Pass Details

Date: 26 November 2019
Orbit: 652 x 3831 km, 34.3° (Epoch: 07 December)

Event Time Altitude Azimuth Distance (km) Brightness Sun altitude
Rises 11:01:34 0° 291° (WNW) 5,105 13.6 -16.0°
Reaches altitude 10° 11:04:39 10° 299° (WNW) 4,476 13.2 -16.1°
Maximum altitude 11:16:37 39° 2° (N) 3,796 12.5 -16.4°
Drops below altitude 10° 11:35:06 10° 60° (ENE) 6,796 14.0 -16.6°
Sets 11:41:17 0° 65° (ENE) 7,957 14.4 -16.6°
